GSAT0209 (GALILEO 12)

Last updated on Sun Sep 20 2026 00:02:47 GMT+0000 (Coordinated Universal Time)

1 41174U 15079A 26261.89271932 .00000020 00000+0 00000+0 0 9997 2 41174 55.8868 98.6896 0003620 19.3368 340.7495 1.70474078 66378
UTC large
Height (km)
Speed (km/s)
/
Latitude / Longitude
Inclination (degrees)
Orbital Period (minutes)
Azimuth
Elevation
Range (km)
Doppler Factor

Next 0 passes for location: London (51.5072 / 0.1276)

No passes found over London.